Location: Potomac
(46.8816°N, 113.5795°W)
Time: 07:13:57
(UTC+00:00)

JY1SAT - Pass Details

Date: 04 July 2022
Orbit: 564 x 586 km, 97.6° (Epoch: 15 August)

Event Time Altitude Azimuth Distance (km) Brightness Sun altitude
Exits shadow 04:24:01 10° 141° (SE) 1,948 ? -7.6°
Reaches altitude 10° 04:24:07 10° 140° (SE) 1,910 ? -7.6°
Maximum altitude 04:28:00 41° 71° (ENE) 860 ? -8.1°
Drops below altitude 10° 04:31:56 10° 1° (N) 1,921 ? -8.5°
Sets 04:34:10 0° 354° (N) 2,824 ? -8.8°
